Torna al catalogo

STARLINK-37812

AttivoComunicazioniVLEO
NORAD 100293·PAYLOAD·🇺🇸 United States

Lanciato Aug 11, 2026 da Cape Canaveral Space Force Station

Loading…

Prossimi Passaggi (prossime 24 ore)

TLE

ObsoletoSource: Space-Track

Epoca: Sep 8, 2026, 21:29 UTC

1 A0293U 26183X   26251.89539494  .00312711  00000-0  19848-2 0  9998
2 A0293  53.1587 314.3924 0003899 358.7086   1.3923 15.75059437  4487

Traccia STARLINK-37812 in tempo reale con AllMySat

Download on the App Store